Manchester, VT (05254)

10:55 AM EDT on September 01, 2015 (GMT -0400)
Zoey's Deli Weather Station | | Change Station
CLOSE
Current Station
Personal Weather Station
Location: Manchester, VT
Elevation: 712 ft
Nearby Weather Stations

Elev 712 ft 43.17 °N, 73.05 °W | Updated 43 seconds ago

Clear
Clear
78.5 °F
Feels Like 80 °F
N
0.0
Wind Variable Wind from NW
Gusts 4.0 mph

Today
High -- | Low -- °F
--% Chance of Precip.
Yesterday
High -- | Low -- °F
Precip. -- in
6:16 AM 7:27 PM
Waning Gibbous, 88% visible
Pressure 30.08 in
Visibility 10.0 miles
Clouds Clear
Heat Index 80 °F
Dew Point 66 °F
Humidity 66%
Rainfall 0.00 in
Snow Depth Not available.
UV 5 out of 12
Pollen 9.30 out of 12
Air Quality Not available.
Flu Activity Not available.
METAR KDDH 011354Z AUTO 00000KT 10SM CLR 23/17 A3009 RMK AO2 SLP186 T02280172 $
Pressure 30.08 in
Visibility 10.0 miles
Clouds Clear
Heat Index 80 °F
Dew Point 66 °F
Humidity 66%
Rainfall 0.00 in
Snow Depth Not available.
UV 5 out of 12
Pollen 9.30 out of 12
Air Quality Not available.
Flu Activity Not available.
METAR KDDH 011354Z AUTO 00000KT 10SM CLR 23/17 A3009 RMK AO2 SLP186 T02280172 $

10-Day Weather Forecast

×

Almanac

Astronomy

Sep. 01, 2015 Rise Set
Actual Time
Civil Twilight
Nautical Twilight
Astronomical Twilight
Moon
Length of Visible Light
Length of Day
Tomorrow will be .
, % of the Moon is Illuminated

Today's Extremes

State Highs State Lows

Community

WunderPhotos

Upload Photos

1,851,513 photos uploaded!

WunderBlogs® & News

Nearby

Air Quality

  Air Quality AQ Index Pollutant
Not available.

Snow Depth

Station Depth Elevation

Earthquake Activity

City Distance Mag. Time & Date
Minimum magnitude displayed is 2.5.

Coastal Water Temperatures

Place Temperature

Stations

Nearby Weather Stations

Station Location Temp. Windchill Dew Point Humidity Wind Precip. Elev Updated Type